This is the latest recevied weather packets stored in our database for station/object KB1RMA-13. If no packets are shown the sender has not sent any weather packets the latest 1 day(s).
| Time | Temp. | Humidity | Pressure | Rain* | Wind** | Luminosity | Snow |
|---|---|---|---|---|---|---|---|
| 1778052166 | 17.22° C | 73% | 1008.6 hPa | 0 mm | 5.36 m/s, 215° | 0 W/m² | - |
| 1778051864 | 17.22° C | 73% | 1008.5 hPa | 0 mm | 4.02 m/s, 208° | 0 W/m² | - |
| 1778051562 | 17.22° C | 72% | 1008.5 hPa | 0 mm | 3.58 m/s, 206° | 0 W/m² | - |
| 1778051258 | 17.22° C | 72% | 1008.5 hPa | 0 mm | 3.13 m/s, 221° | 0 W/m² | - |
| 1778050955 | 17.22° C | 72% | 1008.4 hPa | 0 mm | 5.36 m/s, 239° | 0 W/m² | - |
| 1778050653 | 17.22° C | 71% | 1008.4 hPa | 0 mm | 4.02 m/s, 205° | 0 W/m² | - |
| 1778050350 | 17.22° C | 71% | 1008.4 hPa | 0 mm | 3.58 m/s, 235° | 0 W/m² | - |
| 1778050046 | 17.22° C | 71% | 1008.3 hPa | 0 mm | 4.47 m/s, 231° | 0 W/m² | - |
| 1778049742 | 17.22° C | 70% | 1008.2 hPa | 0 mm | 4.47 m/s, 226° | 0 W/m² | - |
| 1778049440 | 17.78° C | 70% | 1008.3 hPa | 0 mm | 4.47 m/s, 192° | 0 W/m² | - |
| 1778049137 | 17.78° C | 69% | 1007.9 hPa | 0 mm | 3.13 m/s, 213° | 0 W/m² | - |
| 1778048836 | 17.78° C | 69% | 1008.4 hPa | 0 mm | 3.58 m/s, 211° | 0 W/m² | - |
| 1778048532 | 17.78° C | 69% | 1008.2 hPa | 0 mm | 4.47 m/s, 222° | 0 W/m² | - |
| 1778048228 | 17.78° C | 68% | 1008.1 hPa | 0 mm | 5.81 m/s, 198° | 0 W/m² | - |
| 1778047926 | 17.78° C | 68% | 1008.1 hPa | 0 mm | 3.58 m/s, 200° | 0 W/m² | - |
| 1778047625 | 17.78° C | 68% | 1008.1 hPa | 0 mm | 5.36 m/s, 207° | 0 W/m² | - |
| 1778047321 | 17.78° C | 68% | 1008.1 hPa | 0 mm | 3.13 m/s, 204° | 0 W/m² | - |
| 1778047018 | 17.78° C | 67% | 1008.1 hPa | 0 mm | 6.26 m/s, 208° | 0 W/m² | - |
| 1778046715 | 17.78° C | 68% | 1008.2 hPa | 0 mm | 3.13 m/s, 184° | 0 W/m² | - |
| 1778046412 | 17.78° C | 67% | 1008.3 hPa | 0 mm | 3.58 m/s, 193° | 0 W/m² | - |
| 1778046107 | 17.78° C | 66% | 1008.2 hPa | 0 mm | 3.13 m/s, 192° | 0 W/m² | - |
| 1778045805 | 17.78° C | 66% | 1008.2 hPa | 0 mm | 4.92 m/s, 209° | 0 W/m² | - |
| 1778045504 | 18.33° C | 66% | 1008.4 hPa | 0 mm | 7.15 m/s, 239° | 0 W/m² | - |
| 1778045202 | 18.33° C | 65% | 1008.5 hPa | 0 mm | 5.36 m/s, 198° | 0 W/m² | - |
| 1778044900 | 18.33° C | 65% | 1008.4 hPa | 0 mm | 4.47 m/s, 224° | 0 W/m² | - |
* Rain latest hour (hover to see other rain measurements)
** Current wind speed in m/s (hover to see current wind gust speed)